Flag for Poland Weather past 2 weeks in Płock, Poland

Now
88 °F

Pleasantly warm.


Feels Like: 85 °F
Forecast: 62 / 93 °F
Wind: 2 mph from South

Location: Plock

Current Time: Jul 4, 2015 at 3:53:55 PM

Latest Report: Jul 4, 2015 at 3:00 PM


Visibility: 19 mi

Pressure: 30.17 "Hg

Humidity: 29%

Dew point: 51 °F

Location of PłockLocation

Historic Weather in Płock — Graph

°F

Płock temperature yesterday

Maximum temperature yesterday: 84 °F (at 3:00 PM)
Minimum temperature yesterday: 57 °F (at 5:00 AM)
Average temperature yesterday: 72 °F

Past Weeks' High & Low Weather Summary

 TemperatureHumidityPressure
High86 °F (Jul 4, 2:00 PM)97% (Jun 22, 5:00 AM)30.41 "Hg (Jun 22, 5:00 AM)
Low47 °F (Jun 25, 5:00 AM)29% (Jul 2, 6:00 PM)29.68 "Hg (Jun 23, 4:00 AM)
Average62 °F69%30.08 "Hg
* Reported Jun 19 2:00 PM — Jul 4 2:00 PM, Płock, Weather by CustomWeather, © 2015

Note: Actual official high and low records may vary slightly from our data, if they occured in-between our weather recording intervals... More about our weather records

Advertising

Płock weather history for previous 24 hours

 ConditionsComfort  
Time TempWeatherWind HumidityBarometerVisibility
2:00 PM
Sat, Jul 4
86 °FPleasantly warm.1 mph32%30.19 "Hg17 mi
1:00 PM85 °FPleasantly warm.2 mph31%30.21 "Hg19 mi
12:00 PM85 °FPleasantly warm.5 mph33%30.23 "Hg18 mi
11:00 AM83 °FPleasantly warm.3 mph36%30.24 "Hg19 mi
10:00 AM80 °FPleasantly warm.2 mph39%30.25 "Hg17 mi
9:00 AM77 °FWarm.2 mph47%30.27 "Hg19 mi
8:00 AM74 °FMild.2 mph51%30.28 "Hg19 mi
7:00 AM68 °FMild.2 mph63%30.29 "Hg18 mi
6:00 AM64 °FMild.2 mph70%30.29 "Hg19 mi
5:00 AM61 °FCool.2 mph72%30.29 "Hg25 mi
4:00 AM61 °FCool.2 mph71%30.30 "Hg22 mi
3:00 AM62 °FCool.2 mph69%30.31 "Hg16 mi
2:00 AM63 °FMild.2 mph67%30.33 "Hg22 mi
1:00 AM63 °FMild.1 mph66%30.34 "Hg22 mi
12:00 AM64 °FMild.1 mph65%30.34 "Hg19 mi
11:00 PM
Fri, Jul 3
67 °FMild.1 mph59%30.33 "Hg19 mi
10:00 PM70 °FMild.1 mph54%30.32 "Hg25 mi
9:00 PM76 °FMild.1 mph43%30.32 "Hg28 mi
8:00 PM80 °FPleasantly warm.2 mph37%30.31 "Hg22 mi
7:00 PM82 °FPleasantly warm.3 mph33%30.31 "Hg22 mi
6:00 PM84 °FPleasantly warm.3 mph31%30.32 "Hg22 mi
5:00 PM84 °FPleasantly warm.5 mph30%30.33 "Hg22 mi
4:00 PM84 °FPleasantly warm.3 mph29%30.34 "Hg19 mi
3:00 PM84 °FPleasantly warm.3 mph32%30.35 "Hg25 mi
Weather by CustomWeather, © 2015

See weather overviewHow to use our weather pages